Hourly Data Report for April 16, 2006

TORONTO CITY
ONTARIO

43°40'00.000" N
79°24'00.000" W
112.50 m
6158355
71508
XTO

Download Data

Hourly Data (April 2006)
Hourly Data Report for April 16, 2006
TIME
LST
Temp Definition
°C
Dew Point Definition
°C
Rel Hum Definition
%
Precip. Amount Definition
mm

Wind Dir Definition
10's deg

Wind Spd Definition
km/h
Visibility Definition
km
Stn Press Definition
kPa
Hmdx Definition


Wind Chill Definition


Weather Definition


00:00 8.0 3.0 71   LegendMM LegendMM   99.62     LegendNANA
01:00 7.3 2.7 73   LegendMM LegendMM   99.66     LegendNANA
02:00 6.9 2.3 72   LegendMM LegendMM   99.67     LegendNANA
03:00 6.2 2.1 75   LegendMM LegendMM   99.74     LegendNANA
04:00 6.0 2.1 76   LegendMM LegendMM   99.75     LegendNANA
05:00 5.9 2.4 78   LegendMM LegendMM   99.76     LegendNANA
06:00 5.8 2.4 79   LegendMM LegendMM   99.84     LegendNANA
07:00 6.7 2.4 74   LegendMM LegendMM   99.87     LegendNANA
08:00 7.6 2.8 72   LegendMM LegendMM   99.92     LegendNANA
09:00 9.1 3.6 68   LegendMM LegendMM   99.93     LegendNANA
10:00 9.4 1.6 58   LegendMM LegendMM   99.93     LegendNANA
11:00 10.5 2.6 58   LegendMM LegendMM   99.84     LegendNANA
12:00 11.6 0.4 46   LegendMM LegendMM   99.75     LegendNANA
13:00 11.0 2.6 56   LegendMM LegendMM   99.74     LegendNANA
14:00 9.8 2.7 61   LegendMM LegendMM   99.75     LegendNANA
15:00 11.7 2.8 54   LegendMM LegendMM   99.68     LegendNANA
16:00 11.4 2.2 53   LegendMM LegendMM   99.67     LegendNANA
17:00 10.5 1.9 55   LegendMM LegendMM   99.67     LegendNANA
18:00 10.3 1.5 54   LegendMM LegendMM   99.73     LegendNANA
19:00 10.2 1.4 54   LegendMM LegendMM   99.74     LegendNANA
20:00 10.4 1.0 52   LegendMM LegendMM   99.78     LegendNANA
21:00 9.0 -0.4 52   LegendMM LegendMM   99.83     LegendNANA
22:00 8.8 -0.9 51   LegendMM LegendMM   99.85     LegendNANA
23:00 8.1 -1.1 52   LegendMM LegendMM   99.88     LegendNANA

Notes on Data Quality.

Legend

  • E = Estimated
  • M = Missing
  • NA = Not Available*
  • [empty] = Indicates an unobserved value
Date modified: